Tracking 29892 objects as of 21-Nov-2024
HD Live streaming from Space Station
objects crossing your sky now

THORAD DELTA 1 DEB

Track THORAD DELTA 1 DEB now!
10-day predictions


NORAD ID: 42598
Int'l Code: 1974-089FP
Perigee: 1,362.5 km
Apogee: 1,644.2 km
Inclination: 102.8 °
Period: 115.9 minutes
Semi major axis: 7874 km
RCS: Unknown
Launch date: November 15, 1974
Source: United States (US)
Launch site: AIR FORCE WESTERN TEST RANGE (AFWTR)

Note: This is SATELLITE DEBRIS
Your satellite tracking list
Your tracking list is empty




NASA's NSSDC Master Catalog

Two Line Element Set (TLE):
1 42598U 74089FP  24319.40601543  .00000702  00000-0  51529-2 0  9991
2 42598 102.8006 306.7433 0178881 199.5873 159.8254 12.42447663497540
Source of the keplerian elements: AFSPC